This is the latest recevied weather packets stored in our database for station/object KO4WIL-13. If no packets are shown the sender has not sent any weather packets the latest 10 day(s).
| Time | Temp. | Humidity | Pressure | Rain* | Wind** | Luminosity | Snow |
|---|---|---|---|---|---|---|---|
| 1777813651 | 9.44° C | 56% | 972.7 hPa | 0 mm | - | - | - |
| 1777813349 | 8.89° C | 55% | 972.7 hPa | 0 mm | - | - | - |
| 1777813047 | 8.89° C | 56% | 972.7 hPa | 0 mm | - | - | - |
| 1777812745 | 9.44° C | 60% | 972.6 hPa | 0 mm | - | - | - |
| 1777812443 | 9.44° C | 61% | 972.6 hPa | 0 mm | - | - | - |
| 1777812141 | 8.89° C | 58% | 972.6 hPa | 0 mm | - | - | - |
| 1777811839 | 8.89° C | 62% | 972.5 hPa | 0 mm | - | - | - |
| 1777811537 | 8.89° C | 63% | 972.5 hPa | 0 mm | - | - | - |
| 1777811235 | 8.89° C | 61% | 972.5 hPa | 0 mm | - | - | - |
| 1777810933 | 8.89° C | 65% | 972.5 hPa | 0 mm | - | - | - |
| 1777810634 | 9.44° C | 68% | 972.5 hPa | 0 mm | - | - | - |
| 1777810328 | 9.44° C | 68% | 972.4 hPa | 0 mm | - | - | - |
| 1777810026 | 8.89° C | 67% | 972.3 hPa | 0 mm | - | - | - |
| 1777809724 | 8.33° C | 69% | 972.2 hPa | 0 mm | - | - | - |
| 1777809422 | 7.78° C | 71% | 972.1 hPa | 0 mm | - | - | - |
| 1777809120 | 7.22° C | 73% | 972.1 hPa | 0 mm | - | - | - |
| 1777808818 | 6.67° C | 74% | 972 hPa | 0 mm | - | - | - |
| 1777808516 | 6.67° C | 74% | 972 hPa | 0 mm | - | - | - |
| 1777808214 | 6.67° C | 73% | 971.9 hPa | 0 mm | - | - | - |
| 1777807912 | 6.11° C | 74% | 971.8 hPa | 0 mm | - | - | - |
| 1777807610 | 5.56° C | 75% | 971.8 hPa | 0 mm | - | - | - |
| 1777807308 | 5.56° C | 75% | 971.7 hPa | 0 mm | - | - | - |
| 1777807006 | 5° C | 77% | 971.7 hPa | 0 mm | - | - | - |
| 1777806704 | 5° C | 78% | 971.6 hPa | 0 mm | - | - | - |
| 1777806402 | 5° C | 78% | 971.6 hPa | 0 mm | - | - | - |
* Rain latest hour (hover to see other rain measurements)
** Current wind speed in m/s (hover to see current wind gust speed)